SL-16 DEB, 22292

Orbit data source: Space-Track

SL-16 DEB, 22292 is space debris in LEO originally from a launch on Fri, 25 Dec 1992 UTC launched from the Tyuratam Missile And Space Complex (TTMTR). Debris objects in space refer to the collection of defunct objects orbiting the Earth. Examples of debris include non-operational satellites, rocket bodies, and fragments generated from explosions, collisions, or faulty payload assembly.

Loading next visibility...
Identifier
22292, 1992-093G
Orbit
LEO
Country
Flag of CISCIS
Related business
Manufacturer
Yuzhnoe
Mission
Spacecraft
Bus & Motor
SEP MOTOR COVER, Unknown motor
Mass
~0 kg wet, ~1 kg dry
Launch date (UTC)
1992-12-25 (33 years ago)
Launch vehicle
Unknown
Launch site
Tyuratam Missile And Space Complex (TTMTR)
Object type
Payload
Rocket body
Debris
Shape & HBR
Unknown shape, 0.2 m
Radar Cross Section
Small (<0.1 m²)

Expand to show TLE details & history
Last TLE update: 23 hours ago

TLE from 23 hours ago
0 SL-16 DEB
1 22292U 92093G   25306.26961763  .00000123  00000-0  15838-3 0  9990
2 22292  71.0035 255.6091 0207616  75.9520  35.3949 13.70988362637818
Epoch: 2025-11-02T06:28Z
TLE epoch observation values (Epoch: 2025-11-02T06:28:14.963Z)
Latitude
60.79403°
Longitude
-101.01719°
Altitude
882.125 km
Speed
7.479 km/s
True Right ascension
02h 31m 19s
True Declination
60° 38' 59"
Sunlit
Object was in full shadow at epoch
Visualization orbit readout
Latitude
Unknown
Longitude
Unknown
Altitude
Unknown
Speed
Unknown
Apparent Right ascension
Unknown
Apparent Declination
Unknown
Sunlit
N/A
Visualization observer readout
Local Sidereal Time
01:38:52
Azimuth
Unknown
Elevation
Unknown
Doppler factor
Unknown
Orbital elements
Apogee altitude
1,147.049 km
Perigee altitude
840.934 km
Semi-major axis
7,372.128 km
Eccentricity
0.02076
Inclination
71.0035°
RAAN
255.6091°
Arg. of periapsis
75.952°
True anomaly
36.80251°
Mean anomaly
35.3949°
Eccentric anomaly
36.09571°
Mean motion
3.42889 °/min
Orbital period
104.99 mins
BSTAR
0.00015838
Loading maneuver chart data...
Computing Atmospheric mass density...
Loading historical data...
Loading historical data...
Loading historical data...
Loading historical data...
Loading historical data...
Loading historical data...
Loading historical data...

Documentation

Showing up to 5 results
|